Greenwood, FL

3:26 AM CST on February 07, 2016 (GMT -0600)
Marianna Municipal

Weather History for KMAI - November, 2013

Change the Weather History Date:

Sunday, November 10, 2013

  Actual Average Record
Temperature  
Mean Temperature 63 °F 61 °F  
Max Temperature 75 °F 73 °F 82 °F (2002)
Min Temperature 50 °F 50 °F 37 °F (2008)
Degree Days  
Heating Degree Days 2    
Month to date heating degree days 37  
Since 1 July heating degree days 71  
Cooling Degree Days 0    
Month to date cooling degree days 9  
Year to date cooling degree days 2476  
Growing Degree Days 12 (Base 50)    
Moisture  
Dew Point 53 °F    
Average Humidity 71    
Maximum Humidity 96    
Minimum Humidity 46    
Precipitation  
Precipitation 0.00 in 0.13 in 0.05 in (1998)
Month to date precipitation 1.05 1.16  
Year to date precipitation 56.00 46.71  
Sea Level Pressure  
Sea Level Pressure 30.21 in    
Wind  
Wind Speed 3 mph (NE)    
Max Wind Speed 12 mph    
Max Gust Speed 15 mph    
Visibility 10 miles    
Events      
T = Trace of Precipitation, MM = Missing Value Source: NWS Daily Summary

Daily Weather History Graph

Daily Weather History Graph

Search for Another Location

Airport or City:

Trip Planner

Search our weather history database for the weather conditions in past years. The results will help you decide how hot, cold, wet, or windy it might be!

Date:

Astronomy

Nov. 10, 2013 Rise Set
Actual Time 6:03 AM CST 4:45 PM CST
Civil Twilight 5:37 AM CST 5:11 PM CST
Nautical Twilight 5:08 AM CST 5:39 PM CST
Astronomical Twilight 4:40 AM CST 6:08 PM CST
Moon 12:24 PM CST (11/10) No Moon Set
Length of Visible Light 11h 33m
Length of Day
10h 42m
First Quarter, 56% of the Moon is Illuminated
Nov 10
First Quarter
Nov 17
Full
Nov 25
Last Quarter
Dec 2
New
Dec 9
First Quarter

Hourly Weather History & Observations

Time (CST) Temp. Dew Point Humidity Pressure Visibility Wind Dir Wind Speed Gust Speed Precip Events Conditions
12:53 AM 54.0 °F 51.1 °F 90% 30.20 in 10.0 mi Calm Calm - N/A   Clear
1:53 AM 54.0 °F 51.1 °F 90% 30.19 in 10.0 mi Calm Calm - N/A   Clear
2:53 AM 53.1 °F 50.0 °F 89% 30.19 in 10.0 mi Calm Calm - N/A   Clear
3:53 AM 52.0 °F 50.0 °F 93% 30.20 in 10.0 mi Calm Calm - N/A   Clear
4:53 AM 52.0 °F 50.0 °F 93% 30.22 in 10.0 mi Calm Calm - N/A   Clear
5:53 AM 53.1 °F 51.1 °F 93% 30.23 in 10.0 mi Calm Calm - N/A   Clear
6:53 AM 55.0 °F 52.0 °F 89% 30.26 in 10.0 mi North 4.6 mph - N/A   Clear
7:53 AM 57.9 °F 55.0 °F 90% 30.26 in 10.0 mi ENE 5.8 mph - N/A   Clear
8:53 AM 61.0 °F 55.0 °F 81% 30.27 in 10.0 mi NE 5.8 mph - N/A   Scattered Clouds
9:53 AM 69.1 °F 57.0 °F 65% 30.25 in 10.0 mi NNE 6.9 mph - N/A   Clear
10:53 AM 72.0 °F 57.0 °F 59% 30.23 in 10.0 mi ENE 8.1 mph - N/A   Clear
11:53 AM 71.1 °F 55.0 °F 57% 30.20 in 10.0 mi ENE 5.8 mph - N/A   Clear
12:53 PM 73.0 °F 54.0 °F 51% 30.18 in 10.0 mi NNE 8.1 mph - N/A   Partly Cloudy
1:53 PM 73.9 °F 53.1 °F 48% 30.17 in 10.0 mi NE 5.8 mph - N/A   Clear
2:53 PM 73.9 °F 52.0 °F 46% 30.17 in 10.0 mi NE 5.8 mph - N/A   Clear
3:53 PM 73.0 °F 53.1 °F 49% 30.17 in 10.0 mi North 5.8 mph - N/A   Clear
4:53 PM 66.9 °F 54.0 °F 63% 30.17 in 10.0 mi North 3.5 mph - N/A   Clear
5:53 PM 62.1 °F 55.9 °F 80% 30.19 in 10.0 mi Calm Calm - N/A   Clear
6:53 PM 60.1 °F 55.9 °F 86% 30.19 in 10.0 mi Calm Calm - N/A   Clear
7:53 PM 57.9 °F 55.0 °F 90% 30.20 in 10.0 mi Calm Calm - N/A   Clear
8:53 PM 55.0 °F 53.1 °F 93% 30.21 in 10.0 mi Calm Calm - N/A   Clear
9:53 PM 55.9 °F 52.0 °F 87% 30.21 in 10.0 mi Calm Calm - N/A   Clear
10:53 PM 54.0 °F 51.1 °F 90% 30.19 in 10.0 mi Calm Calm - N/A   Clear
11:53 PM 52.0 °F 50.0 °F 93% 30.20 in 10.0 mi Calm Calm - N/A   Clear